LIPZLOWI

Guest
Details From LIPZ - Venezia Tessera
To LOWI - Innsbruck Kranebitten
Flight Number -
Tags decoded
Created
Modified
Stats Distance 120 nm / 222 km
Max Altitude 0 ft / 0 m
Waypoints 4
Social Downloads 7
Likes 0
Share VATSIM

Download

Looking for another format? Having issues loading an existing format? Contact us
Advertisement - Login to hide

Notes

Requested: LIPZ BZO UM726 BRENO LOWI

Route

LIPZ BZO UM726 BRENO LOWI

ID Type Via Altitude Latitude Longitude Leg Dist Tot Dist Heading (true) Name
O LIPZ APT - 0 ft / 0 m 45.50479˚ 12.34969˚ - 0 nm - Venezia Tessera
BZO NDB - 0 ft / 0 m 46.46389˚ 11.32222˚ 71 nm 71 nm 324° / 323° BOLZANO NDB
BRENO FIX UM726 (AWY-HI) 0 ft / 0 m 46.98000˚ 11.37667˚ 31 nm 102 nm 4° / 4° -
O LOWI APT - 0 ft / 0 m 47.26023˚ 11.34397˚ 16 nm 119 nm 355° / 355° Innsbruck Kranebitten

Altitude Profile

Advertisement - Login to hide

LIPZ

Details ICAO LIPZ (VCE)
Name Venezia Tessera
Region Italy
Timezone Europe/Rome (UTC+2.0)
Stats Elevation 7 ft / 2 m (AMSL)
Location 45.504791° 12.349691°
Runways 2
Magnetic Variation 3.229° E

METAR

LIPZ 221950Z 13002KT 9999 SCT055 19/17 Q1015 NOSIG

Decode

TAF

TAF LIPZ 221700Z 2218/2324 02008KT 9999 SCT040 TEMPO 2309/2315 TSRA BECMG 2310/2313 14010KT BECMG 2316/2318 VRB05KT

Decode

Departure Runways

ID Width Length Bearing (true) Bearing (mag) Surface Threshold Offset Overrun Length
04L 148 ft / 45 m 9,112 ft / 2,777 m 42.01° 38.78° Asphalt 312 ft / 95 m 0 ft / 0 m
04R 148 ft / 45 m 10,834 ft / 3,302 m 41.99° 38.76° Asphalt 0 ft / 0 m 0 ft / 0 m
22L 148 ft / 45 m 10,834 ft / 3,302 m 222.01° 218.78° Asphalt 0 ft / 0 m 0 ft / 0 m
22R 148 ft / 45 m 9,112 ft / 2,777 m 222.02° 218.79° Asphalt 0 ft / 0 m 0 ft / 0 m

LOWI

Details ICAO LOWI (INN)
Name Innsbruck Kranebitten
Region Austria
Timezone Europe/Vienna (UTC+2.0)
Stats Elevation 1,906 ft / 581 m (AMSL)
Location 47.260226° 11.343967°
Runways 1
Magnetic Variation 3.071° E

METAR

LOWI 221950Z VRB05KT 9999 FEW060 BKN100 19/08 Q1014 NOSIG

Decode

TAF

TAF LOWI 221715Z 2218/2318 08006KT 9999 FEW070 BKN300 TX24/2314Z TN13/2304Z BECMG 2219/2221 27005KT CAVOK BECMG 2309/2311 08007KT 9999 FEW070 SCT300 TEMPO 2313/2318 06010G25KT -SHRA FEW060CB BKN100

Decode

Destination Runways

ID Width Length Bearing (true) Bearing (mag) Surface Threshold Offset Overrun Length
08 148 ft / 45 m 6,545 ft / 1,995 m 81.02° 77.95° Asphalt 338 ft / 103 m 0 ft / 0 m
26 148 ft / 45 m 6,545 ft / 1,995 m 261.04° 257.97° Asphalt 0 ft / 0 m 0 ft / 0 m

Approach Navaids

Runway Type Ident Frequency Range Bearing (true) Bearing (mag) Slope Elevation
26 Localiser OEV 111.10 MHz 27 nm / 50 km 256.00° 252.93° - 1,906 ft / 581 m (AMSL)
26 Localiser OEJ 109.70 MHz 30 nm / 56 km 69.00° 65.93° - 1,906 ft / 581 m (AMSL)
26 Glidescope OEV 111.10 MHz 18 nm / 33 km 256.00° 252.93° 3.80° 1,911 ft / 582 m (AMSL)
26 DME OEJ 109.70 MHz 30 nm / 56 km - - - 1,906 ft / 581 m (AMSL)
26 DME OEV 111.10 MHz 27 nm / 50 km - - - 1,911 ft / 582 m (AMSL)

Popular Alternatives